GW4339 Weather Reports


time (UTC)temp
F
wind
direction
speed
knots
gust
knots
rain 1hr
in
rain 24hr
in
rain mn
in
humidity
%
barometer
mb
20260510204114 83 325 0.0 2.6 0.00 0.00 0.00 41 1014.1
20260510204042 83 303 2.6 5.2 0.00 0.00 0.00 40 1018.2
20260510203610 84 328 3.5 3.5 0.00 0.00 0.00 38 1014.0
20260510203119 84 316 1.7 3.5 0.00 0.00 0.00 38 1018.2
20260510203108 84 208 1.7 2.6 0.00 0.00 0.00 39 1014.2
20260510202606 84 76 2.6 3.5 0.00 0.00 0.00 37 1014.1
20260510202057 84 86 0.9 3.5 0.00 0.00 0.00 37 1014.0
20260510202027 84 287 1.7 3.5 0.00 0.00 0.00 39 1018.3
20260510201554 84 303 2.6 3.5 0.00 0.00 0.00 39 1014.2
20260510201051 84 262 1.7 6.1 0.00 0.00 0.00 39 1014.1
20260510201021 85 337 0.9 2.6 0.00 0.00 0.00 38 1018.4
20260510200547 85 296 0.0 0.9 0.00 0.00 0.00 38 1014.3
20260510200050 84 335 0.9 2.6 0.00 0.00 0.00 39 1018.5
20260510200045 84 256 0.0 0.9 0.00 0.00 0.00 40 1014.2
20260510195543 84 311 0.9 2.6 0.00 0.00 0.00 37 1014.4
20260510195038 84 284 1.7 5.2 0.00 0.00 0.00 40 1018.7
20260510194533 84 276 0.0 1.7 0.00 0.00 0.00 38 1014.7
20260510194030 85 288 3.5 5.2 0.00 0.00 0.00 38 1014.7
20260510194026 85 290 0.9 3.5 0.00 0.00 0.00 38 1018.9
20260510193525 86 359 0.9 1.7 0.00 0.00 0.00 37 1014.7
20260510193021 85 94 0.9 1.7 0.00 0.00 0.00 37 1014.7
20260510193018 84 224 0.9 1.7 0.00 0.00 0.00 39 1019.0
20260510192515 83 246 0.0 1.7 0.00 0.00 0.00 41 1015.0
20260510192049 83 293 2.6 9.6 0.00 0.00 0.00 39 1019.3
20260510192012 83 266 2.6 7.8 0.00 0.00 0.00 41 1015.2
20260510191509 82 288 0.0 5.2 0.00 0.00 0.00 45 1015.0
20260510191101 83 251 1.7 5.2 0.00 0.00 0.00 40 1019.2
20260510191005 84 281 3.5 3.5 0.00 0.00 0.00 40 1015.0
20260510190503 84 276 1.7 5.2 0.00 0.00 0.00 39 1015.2
20260510190033 83 256 1.7 3.5 0.00 0.00 0.00 41 1019.3
20260510185959 83 249 0.9 2.6 0.00 0.00 0.00 41 1015.2
20260510185456 83 347 1.7 2.6 0.00 0.00 0.00 41 1015.0
20260510185026 83 272 2.6 6.1 0.00 0.00 0.00 41 1019.4
20260510184953 82 280 0.9 5.2 0.00 0.00 0.00 41 1015.4
20260510184450 84 15 1.7 2.6 0.00 0.00 0.00 39 1015.5
20260510184017 83 243 0.9 2.6 0.00 0.00 0.00 40 1019.5
20260510183945 84 42 0.9 1.7 0.00 0.00 0.00 43 1015.3
20260510183442 83 272 2.6 7.0 0.00 0.00 0.00 41 1015.2
20260510183110 82 195 0.9 3.5 0.00 0.00 0.00 40 1019.3
20260510182942 82 282 0.9 1.7 0.00 0.00 0.00 39 1015.1
20260510182438 81 293 1.7 2.6 0.00 0.00 0.00 40 1015.3
20260510182042 81 249 2.6 5.2 0.00 0.00 0.00 40 1019.5
20260510181933 81 261 3.5 5.2 0.00 0.00 0.00 40 1015.4
20260510181432 82 239 1.7 3.5 0.00 0.00 0.00 40 1015.4
20260510181101 82 264 0.9 3.5 0.00 0.00 0.00 41 1019.6
20260510180928 82 155 0.0 3.5 0.00 0.00 0.00 41 1015.7
20260510180425 81 262 0.0 1.7 0.00 0.00 0.00 42 1015.6
20260510180034 81 285 1.7 5.2 0.00 0.00 0.00 44 1019.8
20260510175922 81 252 5.2 7.0 0.00 0.00 0.00 44 1015.6
20260510175418 80 12 1.7 2.6 0.00 0.00 0.00 42 1015.6
20260510175025 81 267 2.6 7.8 0.00 0.00 0.00 45 1019.7
20260510174914 81 224 3.5 7.0 0.00 0.00 0.00 45 1015.6
20260510174412 82 339 0.9 1.7 0.00 0.00 0.00 43 1015.3
20260510174115 82 260 0.9 2.6 0.00 0.00 0.00 44 1019.6
20260510173908 82 296 0.9 2.6 0.00 0.00 0.00 44 1015.4
20260510173404 81 257 0.9 1.7 0.00 0.00 0.00 45 1015.5
20260510173110 81 326 0.9 2.6 0.00 0.00 0.00 45 1019.8
20260510172900 81 184 1.7 1.7 0.00 0.00 0.00 46 1015.6
20260510172356 82 245 1.7 1.7 0.00 0.00 0.00 43 1015.7
20260510172041 82 243 0.9 2.6 0.00 0.00 0.00 44 1020.0
20260510171852 82 286 0.0 2.6 0.00 0.00 0.00 45 1015.8
20260510171350 81 262 0.0 1.7 0.00 0.00 0.00 46 1015.7
20260510171035 80 268 1.7 3.5 0.00 0.00 0.00 48 1020.1
20260510170847 81 232 1.7 2.6 0.00 0.00 0.00 50 1015.9
20260510170343 80 270 5.2 6.1 0.00 0.00 0.00 48 1015.8
20260510170024 78 249 2.6 6.1 0.00 0.00 0.00 48 1020.0
20260510165838 78 260 0.9 6.1 0.00 0.00 0.00 47 1015.9
20260510165335 80 269 4.3 7.0 0.00 0.00 0.00 47 1015.8
20260510165054 80 267 1.7 3.5 0.00 0.00 0.00 48 1020.0
20260510164833 80 274 0.9 1.7 0.00 0.00 0.00 49 1015.7
20260510164330 80 1 2.6 3.5 0.00 0.00 0.00 45 1015.8
20260510164047 81 279 0.9 3.5 0.00 0.00 0.00 45 1020.1
20260510163829 81 259 0.0 0.0 0.00 0.00 0.00 44 1015.9
20260510163326 80 209 1.7 3.5 0.00 0.00 0.00 46 1016.0
20260510163049 79 275 0.0 0.9 0.00 0.00 0.00 46 1020.2
20260510162825 79 303 0.9 1.7 0.00 0.00 0.00 48 1016.0
20260510162323 78 307 1.7 5.2 0.00 0.00 0.00 46 1016.2
20260510162020 78 269 1.7 6.1 0.00 0.00 0.00 46 1020.4
20260510161818 78 312 0.9 5.2 0.00 0.00 0.00 45 1016.1
20260510161315 77 222 1.7 3.5 0.00 0.00 0.00 46 1016.2
20260510161052 76 266 2.6 7.0 0.00 0.00 0.00 46 1020.4
20260510160812 76 252 1.7 5.2 0.00 0.00 0.00 46 1016.5
20260510160308 77 213 3.5 5.2 0.00 0.00 0.00 49 1016.3
20260510160043 78 286 2.6 5.2 0.00 0.00 0.00 48 1020.6
20260510155802 78 1 4.3 5.2 0.00 0.00 0.00 48 1016.6
20260510155300 77 175 0.9 1.7 0.00 0.00 0.00 48 1016.4
20260510155034 76 273 1.7 7.0 0.00 0.00 0.00 51 1020.6
20260510154756 76 265 4.3 6.1 0.00 0.00 0.00 50 1016.4
20260510154252 77 310 0.0 2.6 0.00 0.00 0.00 55 1016.3
20260510154028 77 20 0.9 3.5 0.00 0.00 0.00 55 1020.7
20260510153752 77 240 0.0 2.6 0.00 0.00 0.00 55 1016.6
20260510153248 76 288 0.9 2.6 0.00 0.00 0.00 56 1016.4
20260510153044 77 250 1.7 2.6 0.00 0.00 0.00 55 1020.5
20260510152745 77 317 0.9 3.5 0.00 0.00 0.00 55 1016.2
20260510152242 76 23 1.7 1.7 0.00 0.00 0.00 55 1016.2
20260510152057 75 279 2.6 6.1 0.00 0.00 0.00 60 1020.6
20260510151738 75 264 3.5 3.5 0.00 0.00 0.00 60 1016.4
20260510151237 76 284 4.3 6.1 0.00 0.00 0.00 58 1016.4
20260510151046 76 184 0.9 3.5 0.00 0.00 0.00 59 1020.5
20260510150726 76 77 0.9 1.7 0.00 0.00 0.00 58 1016.3
20260510150221 76 120 0.9 1.7 0.00 0.00 0.00 58 1016.2
20260510150039 76 332 1.7 3.5 0.00 0.00 0.00 58 1020.3
20260510145718 76 180 0.9 3.5 0.00 0.00 0.00 59 1016.1
20260510145214 76 31 0.9 1.7 0.00 0.00 0.00 54 1016.2
20260510145033 75 283 0.9 2.6 0.00 0.00 0.00 53 1020.4
20260510144710 75 81 0.9 1.7 0.00 0.00 0.00 54 1016.1
20260510144208 74 293 1.7 3.5 0.00 0.00 0.00 57 1016.0
20260510144026 74 277 1.7 2.6 0.00 0.00 0.00 59 1020.3
20260510143702 74 259 2.6 3.5 0.00 0.00 0.00 59 1016.1
20260510143159 74 357 1.7 2.6 0.00 0.00 0.00 60 1016.1
20260510143016 74 260 0.9 1.7 0.00 0.00 0.00 62 1020.1
20260510142655 75 273 0.9 3.5 0.00 0.00 0.00 60 1016.1
20260510142152 73 44 0.9 1.7 0.00 0.00 0.00 65 1015.8
20260510142113 74 310 0.9 2.6 0.00 0.00 0.00 63 1020.0
20260510141649 74 258 0.0 1.7 0.00 0.00 0.00 63 1015.7
20260510141147 74 219 0.0 0.9 0.00 0.00 0.00 62 1015.9
20260510141047 72 287 0.9 1.7 0.00 0.00 0.00 65 1020.0
20260510140644 72 276 0.0 1.7 0.00 0.00 0.00 64 1015.9
20260510140142 72 283 0.9 1.7 0.00 0.00 0.00 67 1015.8
20260510140045 72 260 0.9 1.7 0.00 0.00 0.00 69 1019.9
20260510135638 72 258 0.9 1.7 0.00 0.00 0.00 68 1015.7
20260510135134 71 250 0.0 0.9 0.00 0.00 0.00 70 1015.8
20260510135039 70 281 0.9 1.7 0.00 0.00 0.00 70 1020.0
20260510134631 70 273 0.9 1.7 0.00 0.00 0.00 71 1015.8
20260510134129 70 270 0.0 0.9 0.00 0.00 0.00 70 1015.8
20260510134031 70 273 0.9 1.7 0.00 0.00 0.00 70 1020.1
20260510133625 70 274 0.0 1.7 0.00 0.00 0.00 70 1015.9
20260510133120 69 293 0.0 0.9 0.00 0.00 0.00 73 1015.8
20260510133045 69 263 0.0 0.9 0.00 0.00 0.00 73 1020.0
20260510132617 68 269 0.0 0.9 0.00 0.00 0.00 73 1015.8
20260510132115 68 187 0.0 0.0 0.00 0.00 0.00 71 1016.0
20260510132054 67 257 0.0 0.9 0.00 0.00 0.00 74 1020.1
20260510131612 67 263 0.9 1.7 0.00 0.00 0.00 75 1016.0
20260510131109 66 268 0.0 1.7 0.00 0.00 0.00 76 1016.0
20260510131046 66 270 0.9 1.7 0.00 0.00 0.00 78 1020.3
20260510130605 66 264 0.9 2.6 0.00 0.00 0.00 77 1016.1
20260510130059 65 273 0.0 0.9 0.00 0.00 0.00 79 1020.1
20260510125559 65 270 0.9 1.7 0.00 0.00 0.00 80 1015.9
20260510125055 64 228 0.0 1.7 0.00 0.00 0.00 81 1016.2
20260510125029 64 266 0.9 1.7 0.00 0.00 0.00 83 1020.1
20260510124552 64 337 0.0 0.9 0.00 0.00 0.00 84 1015.8
20260510124049 63 235 0.0 0.9 0.00 0.00 0.00 87 1016.0
20260510124023 62 291 0.0 1.7 0.00 0.00 0.00 88 1020.1
20260510123544 61 263 0.0 0.0 0.00 0.00 0.00 91 1015.7
20260510123041 59 272 0.0 0.0 0.00 0.00 0.00 95 1015.9
20260510123038 59 0.0 0.0 0.00 0.00 0.00 98 1019.9
20260510122536 59 333 0.0 0.0 0.00 0.00 0.00 99 1015.7
20260510122053 58 0.0 0.0 0.00 0.00 0.00 99 1019.8
20260510122033 58 334 0.0 0.0 0.00 0.00 0.00 99 1015.7
20260510121538 57 0.0 0.0 0.00 0.00 0.00 99 1019.7
20260510121530 58 334 0.0 0.0 0.00 0.00 0.00 99 1015.6
20260510121027 57 333 0.0 0.9 0.00 0.00 0.00 99 1015.4
20260510120531 56 0.0 0.0 0.00 0.00 0.00 99 1019.6
20260510120525 57 340 0.0 0.0 0.00 0.00 0.00 99 1015.4
20260510120020 56 340 0.0 0.0 0.00 0.00 0.00 99 1015.3
20260510115525 56 0.0 0.0 0.00 0.00 0.00 99 1019.4
20260510115517 57 340 0.0 0.0 0.00 0.00 0.00 99 1015.2
20260510115014 56 340 0.0 0.0 0.00 0.00 0.00 99 1015.2
20260510114519 55 0.0 0.0 0.00 0.00 0.00 99 1019.3
20260510114510 55 340 0.0 0.0 0.00 0.00 0.00 99 1015.1
20260510114006 55 340 0.0 0.0 0.00 0.00 0.00 99 1015.1
20260510113554 54 0.0 0.0 0.00 0.00 0.00 99 1019.2
20260510113501 54 340 0.0 0.0 0.00 0.00 0.00 99 1015.0
20260510112959 54 340 0.0 0.0 0.00 0.00 0.00 99 1015.1
20260510112550 53 0.0 0.0 0.00 0.00 0.00 99 1019.1
20260510112456 53 340 0.0 0.0 0.00 0.00 0.00 99 1014.9
20260510111952 53 340 0.0 0.0 0.00 0.00 0.00 99 1014.8
20260510111448 53 340 0.0 0.0 0.00 0.00 0.00 99 1014.9
20260510110944 53 341 0.0 0.0 0.00 0.00 0.00 99 1014.6
20260510110441 53 340 0.0 0.0 0.00 0.00 0.00 99 1014.6
20260510105937 52 340 0.0 0.0 0.00 0.00 0.00 99 1014.5
20260510105432 52 340 0.0 0.0 0.00 0.00 0.00 99 1014.5
20260510104927 52 340 0.0 0.0 0.00 0.00 0.00 99 1014.4
20260510104425 52 340 0.0 0.0 0.00 0.00 0.00 99 1014.3
20260510103921 52 340 0.0 0.0 0.00 0.00 0.00 99 1014.3
20260510103419 52 340 0.0 0.0 0.00 0.00 0.00 99 1014.2
20260510102914 52 340 0.0 0.0 0.00 0.00 0.00 99 1014.0
20260510102410 52 341 0.0 0.0 0.00 0.00 0.00 99 1014.1
20260510101908 52 341 0.0 0.0 0.00 0.00 0.00 99 1014.2
20260510101406 52 341 0.0 0.0 0.00 0.00 0.00 99 1014.2
20260510100902 53 342 0.0 0.0 0.00 0.00 0.00 99 1014.0
20260510100359 53 342 0.0 0.0 0.00 0.00 0.00 99 1014.1
20260510095855 53 342 0.0 0.0 0.00 0.00 0.00 99 1014.2
20260510095350 54 342 0.0 0.0 0.00 0.00 0.00 99 1014.0
20260510094850 54 344 0.0 0.0 0.00 0.00 0.00 99 1013.9
20260510094345 54 257 0.0 0.0 0.00 0.00 0.00 99 1013.7
20260510093842 53 137 0.0 0.0 0.00 0.00 0.00 99 1013.7
20260510093337 53 139 0.0 0.0 0.00 0.00 0.00 99 1013.6
20260510092834 53 187 0.0 0.0 0.00 0.00 0.00 99 1013.7
20260510092330 53 184 0.0 0.0 0.00 0.00 0.00 99 1013.5
20260510091826 52 184 0.0 0.0 0.00 0.00 0.00 99 1013.4
20260510091323 52 184 0.0 0.0 0.00 0.00 0.00 99 1013.6
20260510090819 52 184 0.0 0.0 0.00 0.00 0.00 99 1013.5
20260510090317 53 184 0.0 0.0 0.00 0.00 0.00 99 1013.6
20260510085812 52 182 0.0 0.0 0.00 0.00 0.00 99 1013.5
20260510085307 52 182 0.0 0.0 0.00 0.00 0.00 99 1013.5
20260510084803 53 182 0.0 0.0 0.00 0.00 0.00 99 1013.4
20260510084300 53 182 0.0 0.0 0.00 0.00 0.00 99 1013.2
20260510083756 53 182 0.0 0.0 0.00 0.00 0.00 99 1013.4
20260510083254 52 182 0.0 0.0 0.00 0.00 0.00 99 1013.4
20260510082749 53 182 0.0 0.0 0.00 0.00 0.00 99 1013.3
20260510082246 53 183 0.0 0.0 0.00 0.00 0.00 99 1013.3
20260510081745 53 183 0.0 0.0 0.00 0.00 0.00 99 1013.1
20260510081241 53 183 0.0 0.0 0.00 0.00 0.00 99 1012.9
20260510080736 53 183 0.0 0.0 0.00 0.00 0.00 99 1013.0
20260510080232 54 183 0.0 0.0 0.00 0.00 0.00 99 1012.8
20260510075729 54 183 0.0 0.0 0.00 0.00 0.00 99 1012.9
20260510075227 54 183 0.0 0.0 0.00 0.00 0.00 99 1012.8
20260510074724 54 183 0.0 0.0 0.00 0.00 0.00 99 1012.9
20260510074220 54 183 0.0 0.0 0.00 0.00 0.00 99 1012.7
20260510073717 54 183 0.0 0.0 0.00 0.00 0.00 99 1012.6
20260510073212 54 183 0.0 0.0 0.00 0.00 0.00 99 1012.6
20260510072708 54 183 0.0 0.0 0.00 0.00 0.00 99 1012.8
20260510072205 54 183 0.0 0.0 0.00 0.00 0.00 99 1012.9
20260510071702 55 183 0.0 0.0 0.00 0.00 0.00 99 1012.7
20260510071159 55 183 0.0 0.0 0.00 0.00 0.00 99 1012.7
20260510070656 54 183 0.0 0.0 0.00 0.00 0.00 99 1012.8
20260510070154 55 183 0.0 0.0 0.00 0.00 0.00 99 1012.7
20260510065649 55 183 0.0 0.0 0.00 0.00 0.00 99 1012.6
20260510065145 55 183 0.0 0.0 0.00 0.00 0.00 99 1012.7
20260510064642 55 183 0.0 0.0 0.00 0.00 0.00 99 1012.6
20260510064139 55 183 0.0 0.0 0.00 0.00 0.00 99 1012.7
20260510063636 55 183 0.0 0.0 0.00 0.00 0.00 99 1012.8
20260510063132 55 183 0.0 0.0 0.00 0.00 0.00 99 1012.6
20260510062628 55 182 0.0 0.0 0.00 0.00 0.00 99 1012.8
20260510062124 55 181 0.0 0.0 0.00 0.00 0.00 99 1012.8
20260510061620 55 173 0.0 0.0 0.00 0.00 0.00 99 1012.6
20260510061118 55 180 0.0 0.0 0.00 0.00 0.00 99 1012.8
20260510060613 55 180 0.0 0.0 0.00 0.00 0.00 99 1012.7
20260510060110 55 180 0.0 0.0 0.00 0.00 0.00 98 1012.6
20260510055606 56 180 0.0 0.0 0.00 0.00 0.00 98 1012.6
20260510055105 56 180 0.0 0.0 0.00 0.00 0.00 97 1012.7
20260510054600 56 180 0.0 0.0 0.00 0.00 0.00 97 1012.6
20260510054055 56 180 0.0 0.0 0.00 0.00 0.00 97 1012.6
20260510053555 56 180 0.0 0.0 0.00 0.00 0.00 97 1012.7
20260510053052 56 180 0.0 0.0 0.00 0.00 0.00 97 1012.9
20260510052548 57 180 0.0 0.0 0.00 0.00 0.00 97 1012.6
20260510052044 56 180 0.0 0.0 0.00 0.00 0.00 97 1012.8
20260510051540 56 180 0.0 0.0 0.00 0.00 0.00 97 1012.6
20260510051036 57 180 0.0 0.0 0.00 0.00 0.00 96 1012.8
20260510050534 57 180 0.0 0.0 0.00 0.00 0.00 96 1012.8
20260510050031 57 180 0.0 0.0 0.00 0.00 0.00 96 1012.8
20260510045528 57 180 0.0 0.0 0.00 0.00 0.00 96 1012.8
20260510045024 57 180 0.0 0.0 0.00 0.00 0.00 96 1012.7
20260510044521 57 176 0.0 0.0 0.00 0.00 0.00 96 1012.4
20260510044019 57 176 0.0 0.0 0.00 0.00 0.00 96 1012.6
20260510043514 57 172 0.0 0.0 0.00 0.00 0.00 96 1012.7
20260510043009 57 8 0.0 0.0 0.00 0.00 0.00 96 1012.6
20260510042503 57 357 0.0 0.0 0.00 0.00 0.00 96 1012.7
20260510041958 57 358 0.0 0.0 0.00 0.00 0.00 96 1012.6
20260510041455 57 84 0.0 0.0 0.00 0.00 0.00 96 1012.6
20260510040954 56 210 0.0 0.0 0.00 0.00 0.00 96 1012.5
20260510040450 56 342 0.0 0.0 0.00 0.00 0.00 96 1012.5
20260510035946 56 342 0.0 0.0 0.00 0.00 0.00 96 1012.6
20260510035442 56 342 0.0 0.0 0.00 0.00 0.00 96 1012.5
20260510034936 56 342 0.0 0.0 0.00 0.00 0.00 96 1012.5
20260510034435 56 342 0.0 0.0 0.00 0.00 0.00 96 1012.5
20260510033931 57 342 0.0 0.0 0.00 0.00 0.00 96 1012.5
20260510033427 57 342 0.0 0.0 0.00 0.00 0.00 96 1012.5
20260510032924 57 342 0.0 0.0 0.00 0.00 0.00 96 1012.4
20260510032422 57 342 0.0 0.0 0.00 0.00 0.00 96 1012.5
20260510031917 57 342 0.0 0.9 0.00 0.00 0.00 96 1012.2
20260510031413 57 342 0.0 0.0 0.00 0.00 0.00 95 1012.2
20260510030912 57 342 0.0 0.0 0.00 0.00 0.00 95 1012.2
20260510030409 57 342 0.0 0.0 0.00 0.00 0.00 95 1012.3
20260510025907 57 342 0.0 0.0 0.00 0.00 0.00 94 1012.1
20260510025404 58 342 0.0 0.0 0.00 0.00 0.00 94 1012.2
20260510024901 58 342 0.0 0.0 0.00 0.00 0.00 93 1012.2
20260510024357 58 342 0.0 0.0 0.00 0.00 0.00 93 1012.1
20260510023853 58 342 0.0 0.0 0.00 0.00 0.00 92 1012.2
20260510023350 58 342 0.0 0.0 0.00 0.00 0.00 92 1011.9
20260510022848 59 342 0.0 0.0 0.00 0.00 0.00 91 1012.0
20260510022347 59 342 0.0 0.0 0.00 0.00 0.00 91 1012.0
20260510021845 59 342 0.0 0.0 0.00 0.00 0.00 90 1012.1
20260510021344 60 342 0.0 0.0 0.00 0.00 0.00 89 1012.1
20260510020840 60 342 0.0 0.0 0.00 0.00 0.00 88 1011.9
20260510020340 61 342 0.0 0.9 0.00 0.00 0.00 87 1011.9
20260510015836 62 342 0.0 0.9 0.00 0.00 0.00 86 1011.8
20260510015332 61 342 0.0 0.9 0.00 0.00 0.00 86 1011.7
20260510014827 61 342 0.0 0.9 0.00 0.00 0.00 86 1011.7
20260510014325 61 342 0.0 0.0 0.00 0.00 0.00 86 1011.6
20260510013821 61 342 0.0 0.9 0.00 0.00 0.00 87 1011.5
20260510013317 61 342 0.0 0.9 0.00 0.00 0.00 87 1011.5
20260510012812 61 338 0.0 0.0 0.00 0.00 0.00 86 1011.4
20260510012307 61 339 0.0 0.9 0.00 0.00 0.00 86 1011.5
20260510011801 62 345 0.9 0.9 0.00 0.00 0.00 85 1011.6
20260510011257 61 345 0.9 0.9 0.00 0.00 0.00 85 1011.5
20260510010754 62 348 0.9 0.9 0.00 0.00 0.00 85 1011.4
20260510010250 62 27 0.0 0.0 0.00 0.00 0.00 84 1011.4
20260510005748 62 338 0.0 0.0 0.00 0.00 0.00 84 1011.2
20260510005244 62 311 0.0 0.0 0.00 0.00 0.00 85 1011.3
20260510004742 62 314 0.0 0.0 0.00 0.00 0.00 84 1011.1
20260510004239 63 261 0.0 0.0 0.00 0.00 0.00 83 1011.0
20260510003736 63 11 0.0 0.0 0.00 0.00 0.00 82 1011.1
20260510003233 63 316 0.0 0.0 0.00 0.00 0.00 82 1011.0
20260510002731 64 327 0.0 0.0 0.00 0.00 0.00 81 1010.9
20260510002229 64 299 0.0 0.0 0.00 0.00 0.00 79 1010.9
20260510001725 65 270 0.0 0.0 0.00 0.00 0.00 79 1010.9
20260510001224 65 6 0.0 0.0 0.00 0.00 0.00 76 1010.9
20260510000720 66 260 0.0 0.0 0.00 0.00 0.00 77 1010.7
20260510000219 66 29 0.0 0.0 0.00 0.00 0.00 75 1010.7
20260509235714 67 343 0.0 0.0 0.00 0.00 0.00 74 1010.7
20260509235210 68 299 0.0 0.0 0.00 0.00 0.00 73 1010.7
20260509234707 68 315 0.0 0.0 0.00 0.00 0.00 72 1010.6
20260509234204 68 279 0.0 0.0 0.00 0.00 0.00 70 1010.6
20260509233702 69 278 0.0 0.0 0.00 0.00 0.00 69 1010.6
20260509233159 69 278 0.0 0.0 0.00 0.00 0.00 68 1010.5
20260509232655 69 302 0.0 0.0 0.00 0.00 0.00 66 1010.7
20260509232152 70 269 0.0 0.0 0.00 0.00 0.00 68 1010.7
20260509231649 71 269 0.0 0.0 0.00 0.00 0.00 66 1010.5
20260509231146 71 273 0.0 0.0 0.00 0.00 0.00 67 1010.5
20260509230643 71 271 0.0 0.9 0.00 0.00 0.00 63 1010.5
20260509230140 72 261 0.0 0.0 0.00 0.00 0.00 64 1010.4
20260509225636 72 261 0.0 0.0 0.00 0.00 0.00 65 1010.4
20260509225131 73 279 0.0 0.0 0.00 0.00 0.00 63 1010.3
20260509224627 73 289 0.0 0.0 0.00 0.00 0.00 59 1010.5
20260509224124 73 269 0.0 0.0 0.00 0.00 0.00 59 1010.4
20260509223620 73 291 0.0 0.0 0.00 0.00 0.00 60 1010.5
20260509223119 74 284 0.0 0.0 0.00 0.00 0.00 59 1010.6
20260509222614 74 269 0.0 0.0 0.00 0.00 0.00 57 1010.6
20260509222110 74 305 0.0 0.9 0.00 0.00 0.00 55 1010.5
20260509221606 74 265 0.0 0.0 0.00 0.00 0.00 56 1010.5
20260509221103 75 263 0.0 1.7 0.00 0.00 0.00 59 1010.5
20260509220558 75 279 0.0 0.0 0.00 0.00 0.00 57 1010.7
20260509220055 75 290 0.9 2.6 0.00 0.00 0.00 56 1010.6
20260509215550 76 250 0.9 2.6 0.00 0.00 0.00 53 1010.5
20260509215048 76 271 0.9 2.6 0.00 0.00 0.00 51 1010.6
20260509214545 77 278 1.7 3.5 0.00 0.00 0.00 53 1010.5
20260509214042 76 270 0.9 1.7 0.00 0.00 0.00 53 1010.5
20260509213538 76 278 0.9 1.7 0.00 0.00 0.00 52 1010.6
20260509213035 76 274 1.7 3.5 0.00 0.00 0.00 52 1010.5
20260509212532 75 273 0.9 3.5 0.00 0.00 0.00 55 1010.5
20260509212029 75 317 1.7 1.7 0.00 0.00 0.00 53 1010.5
20260509211524 76 254 1.7 2.6 0.00 0.00 0.00 55 1010.4
20260509211021 76 283 1.7 1.7 0.00 0.00 0.00 55 1010.5
20260509210518 76 266 1.7 1.7 0.00 0.00 0.00 57 1010.2
20260509210015 75 277 1.7 2.6 0.00 0.00 0.00 56 1010.4
20260509205509 75 284 2.6 2.6 0.00 0.00 0.00 57 1010.5
20260509205005 76 288 2.6 3.5 0.00 0.00 0.00 56 1010.3